Location: Cabeza de los Veneras
(40.2000°N, 5.2000°W)
Time: 19:09:48
(UTC+00:00)

Tiangong - Visible Passes

Search period start: 18 July 2025 00:00
Search period end: 28 July 2025 00:00
Orbit: 391 x 402 km, 41.5° (Epoch: 18 July)

Date Brightness Start Highest point End Pass type
(mag) Time Alt. Az. Time Alt. Az. Time Alt. Az.
18 Jul -1.5 20:39:23 10° SW 20:42:26 38° SSE 20:45:30 10° E visible
18 Jul -0.9 22:16:11 10° W 22:18:21 38° W 22:18:21 38° W visible
19 Jul -2.2 21:20:27 10° WSW 21:23:42 88° S 21:25:35 23° ENE visible
19 Jul 0.9 22:57:39 10° W 22:58:03 13° W 22:58:03 13° W visible
20 Jul -2.1 20:24:44 10° WSW 20:27:58 66° SSE 20:31:12 10° E visible
20 Jul -1.8 22:01:52 10° W 22:05:01 67° NNW 22:05:01 67° NNW visible
21 Jul -1.9 21:06:04 10° W 21:09:19 72° N 21:11:50 16° ENE visible
21 Jul 0.4 22:43:15 10° WNW 22:44:17 19° WNW 22:44:17 19° WNW visible
22 Jul -2.0 21:47:28 10° W 21:50:44 73° N 21:50:58 68° NE visible
23 Jul -1.8 20:51:38 10° W 20:54:53 67° N 20:57:35 14° E visible
23 Jul 0.2 22:28:48 10° W 22:30:02 21° W 22:30:02 21° W visible
24 Jul -2.2 21:32:58 10° WNW 21:36:13 85° SSW 21:36:36 67° ESE visible
25 Jul -2.0 20:37:07 10° WNW 20:40:22 78° N 20:43:09 13° E visible
25 Jul 0.2 22:14:21 10° W 22:15:36 20° W 22:15:36 20° W visible
26 Jul -1.8 21:18:24 10° W 21:21:35 53° SSW 21:22:08 46° SSE visible
27 Jul -2.1 20:22:30 10° W 20:25:44 76° SSW 20:28:41 12° ESE visible
27 Jul 0.4 22:00:07 10° W 22:01:07 15° WSW 22:01:07 15° WSW visible
